Location: Ergnies
(50.0854°N, 2.0375°E)
Time: 15:02:00
(UTC+00:00)

Okean 2 - Pass Details

Date: 14 January 2026
Orbit: 515 x 524 km, 82.5° (Epoch: 18 February)

Event Time Altitude Azimuth Distance (km) Brightness Sun altitude
Exits shadow 06:17:17 23° 277° (W) 1,138 4.3 -13.6°
Maximum altitude 06:17:32 23° 271° (W) 1,133 4.3 -13.6°
Drops below altitude 10° 06:20:34 10° 218° (SW) 1,741 5.7 -13.1°
Sets 06:22:59 0° 204° (SSW) 2,622 6.7 -12.8°
